FLOCK 2K-13 (42891 NORAD) Tracking and Keplerian Element Data

This shows tracking and keplerian element data for the satellite.

Feedback or suggestion? Click here.




ElementValue
Catalog42891
NameFLOCK 2K-13
Epoch Orbit15574
Epoch Day114.68190262
Epoch Year2020
RAAN346.8024
Inclination96.9029
Eccentricity0.0011176
Argument of Perigee143.6172
Mean Anonmoly216.5839
Mean Motion15.43819367
Decay Rate7.625E-05
L11 42891U 17042BU 20114.68190262 .00007625 00000-0 16975-3 0 9991
L22 42891 96.9029 346.8024 0011176 143.6172 216.5839 15.43819367155741



Live tracking and technical data element details for FLOCK 2K-13 (NORAD 42891). FLOCK 2K-13 can be tracked NOW for your location showing map with azimuth and elevation plus other details from your city location.







IsCatalogInMostPopularTable: catalog: 42891, numindb: 709
Update: records affected: 1



GetName: 42891 FLOCK 2K-13

Hit Count: updated at: Fri, 19 Apr 2024 13:06:52 GMT